DIEMH EDLW-EDXW

Flight info

Callsign DIEMH
Flight time 0h 53m
Altitude 23000
Route HMM1U HMM Z529 SUQIF DCT ABFAD DCT OLDIP
Aircraft C525/L-SDFGRWY/SB1

Departure

Time 2026-03-27 15:44
Airport Dortmund Airport (EDLW)

Arrival

Time 2026-03-27 16:37
Airport Westerland Sylt Airport (EDXW)
Time Latitude Longitude Altitude Speed Heading
2026-03-27 15:15 51.51191 7.60395 445 ft 0 kts 196°
2026-03-27 15:36 51.51188 7.60388 445 ft 1 kts 261°
2026-03-27 15:36 51.51196 7.60352 445 ft 4 kts 288°
2026-03-27 15:37 51.51182 7.60289 445 ft 7 kts 232°
2026-03-27 15:37 51.51147 7.60215 445 ft 7 kts 243°
2026-03-27 15:37 51.51166 7.60158 445 ft 6 kts 348°
2026-03-27 15:37 51.51201 7.60193 445 ft 7 kts 58°
2026-03-27 15:38 51.51244 7.60312 438 ft 17 kts 60°
2026-03-27 15:38 51.51318 7.60515 429 ft 23 kts 60°
2026-03-27 15:38 51.51399 7.60743 421 ft 23 kts 60°
2026-03-27 15:38 51.51472 7.60952 421 ft 18 kts 60°
2026-03-27 15:39 51.51526 7.61056 421 ft 9 kts 359°
2026-03-27 15:39 51.51581 7.61058 421 ft 7 kts 40°
2026-03-27 15:39 51.51607 7.61129 421 ft 8 kts 61°
2026-03-27 15:39 51.51644 7.61233 421 ft 13 kts 61°
2026-03-27 15:40 51.51694 7.61375 421 ft 14 kts 60°
2026-03-27 15:40 51.51740 7.61507 421 ft 13 kts 61°
2026-03-27 15:40 51.51797 7.61666 421 ft 19 kts 60°
2026-03-27 15:40 51.51872 7.61880 421 ft 23 kts 60°
2026-03-27 15:41 51.51948 7.62095 421 ft 21 kts 61°
2026-03-27 15:41 51.52018 7.62292 421 ft 19 kts 61°
2026-03-27 15:41 51.52064 7.62394 421 ft 5 kts 20°
2026-03-27 15:41 51.52112 7.62374 421 ft 9 kts 333°
2026-03-27 15:42 51.52173 7.62322 421 ft 9 kts 332°
2026-03-27 15:42 51.52204 7.62271 421 ft 4 kts 247°
2026-03-27 15:42 51.52201 7.62260 421 ft 0 kts 243°
2026-03-27 15:43 51.52200 7.62257 421 ft 1 kts 242°
2026-03-27 15:43 51.52123 7.62041 421 ft 54 kts 240°
2026-03-27 15:43 51.51836 7.61226 422 ft 110 kts 241°
2026-03-27 15:44 51.51437 7.60013 633 ft 130 kts 243°
2026-03-27 15:44 51.51022 7.58661 1091 ft 138 kts 243°
2026-03-27 15:44 51.50562 7.57219 1471 ft 156 kts 243°
2026-03-27 15:44 51.50042 7.55653 2091 ft 162 kts 241°
2026-03-27 15:45 51.49484 7.54134 2822 ft 160 kts 239°
2026-03-27 15:45 51.48912 7.52616 3514 ft 159 kts 240°
2026-03-27 15:45 51.48341 7.51092 4006 ft 170 kts 240°
2026-03-27 15:45 51.47726 7.49430 4597 ft 176 kts 241°
2026-03-27 15:46 51.47366 7.47562 5109 ft 183 kts 276°
2026-03-27 15:46 51.47825 7.45671 5773 ft 185 kts 300°
2026-03-27 15:46 51.48538 7.43960 6430 ft 186 kts 306°
2026-03-27 15:46 51.49484 7.42581 7060 ft 188 kts 326°
2026-03-27 15:47 51.50586 7.41518 7746 ft 186 kts 330°
2026-03-27 15:47 51.51730 7.40513 8344 ft 188 kts 332°
2026-03-27 15:47 51.52855 7.39548 9005 ft 186 kts 333°
2026-03-27 15:47 51.53983 7.38580 9600 ft 186 kts 333°
2026-03-27 15:48 51.55201 7.37962 10135 ft 188 kts
2026-03-27 15:48 51.56399 7.38694 10698 ft 191 kts 28°
2026-03-27 15:48 51.57494 7.39964 11204 ft 195 kts 34°
2026-03-27 15:48 51.58537 7.41347 11683 ft 198 kts 36°
2026-03-27 15:49 51.59570 7.42769 12213 ft 198 kts 37°
2026-03-27 15:49 51.60616 7.44223 12733 ft 199 kts 37°
2026-03-27 15:49 51.61665 7.45685 13203 ft 202 kts 37°
2026-03-27 15:49 51.62718 7.47157 13737 ft 202 kts 37°
2026-03-27 15:50 51.63768 7.48625 14233 ft 202 kts 36°
2026-03-27 15:50 51.64825 7.50106 14708 ft 204 kts 36°
2026-03-27 15:50 51.65890 7.51600 15232 ft 203 kts 36°
2026-03-27 15:50 51.66917 7.53046 15839 ft 196 kts 36°
2026-03-27 15:51 51.67944 7.54488 16318 ft 195 kts 36°
2026-03-27 15:51 51.68953 7.55906 16787 ft 194 kts 35°
2026-03-27 15:51 51.69987 7.57356 17174 ft 197 kts 35°
2026-03-27 15:51 51.71032 7.58721 17599 ft 195 kts 28°
2026-03-27 15:52 51.72211 7.59812 17994 ft 195 kts 23°
2026-03-27 15:52 51.73421 7.60813 18391 ft 196 kts 21°
2026-03-27 15:52 51.74645 7.61803 18819 ft 197 kts 21°
2026-03-27 15:52 51.75861 7.62785 19226 ft 199 kts 21°
2026-03-27 15:53 51.77104 7.63794 19642 ft 199 kts 21°
2026-03-27 15:53 51.78329 7.64791 20031 ft 201 kts 21°
2026-03-27 15:53 51.79570 7.65805 20415 ft 202 kts 21°
2026-03-27 15:53 51.80832 7.66839 20819 ft 202 kts 21°
2026-03-27 15:54 51.82076 7.67859 21167 ft 204 kts 21°
2026-03-27 15:54 51.83344 7.68901 21569 ft 204 kts 21°
2026-03-27 15:54 51.84600 7.69934 21895 ft 206 kts 21°
2026-03-27 15:54 51.85925 7.70798 22239 ft 203 kts
2026-03-27 15:55 51.87303 7.71153 22609 ft 201 kts
2026-03-27 15:55 51.88711 7.71385 22938 ft 203 kts
2026-03-27 15:55 51.90136 7.71592 23143 ft 212 kts
2026-03-27 15:55 51.91647 7.71808 23182 ft 228 kts
2026-03-27 15:56 51.93278 7.72046 23186 ft 243 kts
2026-03-27 15:56 51.95005 7.72304 23187 ft 257 kts
2026-03-27 15:56 51.96840 7.72583 23188 ft 270 kts
2026-03-27 15:56 51.98730 7.72875 23181 ft 282 kts
2026-03-27 15:57 52.00734 7.73186 23174 ft 292 kts
2026-03-27 15:57 52.02766 7.73504 23175 ft 301 kts
2026-03-27 15:57 52.04889 7.73837 23180 ft 309 kts
2026-03-27 15:57 52.07035 7.74175 23177 ft 316 kts
2026-03-27 15:58 52.09228 7.74521 23176 ft 321 kts
2026-03-27 15:58 52.11489 7.74879 23179 ft 326 kts
2026-03-27 15:58 52.13769 7.75240 23178 ft 331 kts
2026-03-27 15:58 52.16083 7.75607 23177 ft 335 kts
2026-03-27 15:59 52.18380 7.75971 23174 ft 338 kts
2026-03-27 15:59 52.20744 7.76347 23177 ft 340 kts
2026-03-27 15:59 52.23083 7.76720 23178 ft 343 kts
2026-03-27 15:59 52.25451 7.77098 23179 ft 344 kts
2026-03-27 16:00 52.27846 7.77481 23170 ft 346 kts
2026-03-27 16:00 52.30235 7.77862 23162 ft 347 kts
2026-03-27 16:00 52.32643 7.78248 23165 ft 348 kts
2026-03-27 16:00 52.35049 7.78495 23147 ft 347 kts 357°
2026-03-27 16:01 52.37425 7.78172 23145 ft 346 kts 354°
2026-03-27 16:01 52.39840 7.77794 23141 ft 345 kts 353°
2026-03-27 16:01 52.42193 7.77402 23143 ft 344 kts 353°
2026-03-27 16:01 52.44591 7.76998 23138 ft 344 kts 353°
2026-03-27 16:02 52.46956 7.76600 23138 ft 344 kts 353°
2026-03-27 16:02 52.49327 7.76204 23139 ft 343 kts 353°
2026-03-27 16:02 52.51688 7.75811 23137 ft 343 kts 353°
2026-03-27 16:02 52.54051 7.75418 23140 ft 343 kts 353°
2026-03-27 16:03 52.56440 7.75167 23139 ft 344 kts 355°
2026-03-27 16:03 52.58819 7.75003 23142 ft 344 kts 356°
2026-03-27 16:03 52.61201 7.74857 23135 ft 344 kts 356°
2026-03-27 16:03 52.63606 7.74709 23134 ft 344 kts 355°
2026-03-27 16:04 52.65999 7.74558 23132 ft 344 kts 356°
2026-03-27 16:04 52.68370 7.74406 23134 ft 344 kts 356°
2026-03-27 16:04 52.70770 7.74247 23131 ft 344 kts 355°
2026-03-27 16:04 52.73132 7.74091 23129 ft 344 kts 355°
2026-03-27 16:05 52.75531 7.73931 23124 ft 344 kts 355°
2026-03-27 16:05 52.77893 7.73770 23125 ft 344 kts 355°
2026-03-27 16:05 52.80301 7.73606 23126 ft 344 kts 355°
2026-03-27 16:05 52.82689 7.73442 23130 ft 344 kts 355°
2026-03-27 16:06 52.85059 7.73280 23128 ft 344 kts 355°
2026-03-27 16:06 52.87455 7.73114 23126 ft 344 kts 355°
2026-03-27 16:06 52.89825 7.72947 23128 ft 344 kts 355°
2026-03-27 16:06 52.92213 7.72784 23126 ft 344 kts 355°
2026-03-27 16:07 52.94615 7.72623 23127 ft 344 kts 355°
2026-03-27 16:07 52.96990 7.72453 23134 ft 344 kts 355°
2026-03-27 16:07 52.99330 7.71973 23120 ft 341 kts 344°
2026-03-27 16:07 53.01594 7.70828 23127 ft 341 kts 342°
2026-03-27 16:08 53.03864 7.69636 23121 ft 341 kts 341°
2026-03-27 16:08 53.06107 7.68432 23118 ft 341 kts 341°
2026-03-27 16:08 53.08365 7.67213 23121 ft 341 kts 341°
2026-03-27 16:08 53.10636 7.65988 23124 ft 342 kts 340°
2026-03-27 16:09 53.12913 7.64769 23123 ft 342 kts 341°
2026-03-27 16:09 53.15158 7.63570 23118 ft 343 kts 340°
2026-03-27 16:09 53.17422 7.62365 23106 ft 344 kts 341°
2026-03-27 16:09 53.19750 7.61398 23082 ft 348 kts 352°
2026-03-27 16:10 53.22138 7.62024 23109 ft 358 kts 15°
2026-03-27 16:10 53.24339 7.64054 23124 ft 364 kts 28°
2026-03-27 16:10 53.26419 7.66492 23119 ft 366 kts 31°
2026-03-27 16:10 53.28439 7.69023 23117 ft 367 kts 32°
2026-03-27 16:11 53.30466 7.71624 23111 ft 367 kts 33°
2026-03-27 16:11 53.32481 7.74234 23114 ft 366 kts 33°
2026-03-27 16:11 53.34501 7.76864 23116 ft 367 kts 33°
2026-03-27 16:11 53.36493 7.79472 23118 ft 368 kts 33°
2026-03-27 16:12 53.38514 7.82123 23119 ft 368 kts 33°
2026-03-27 16:12 53.40512 7.84748 23109 ft 369 kts 33°
2026-03-27 16:12 53.42533 7.87410 23116 ft 369 kts 33°
2026-03-27 16:12 53.44556 7.90074 23110 ft 369 kts 33°
2026-03-27 16:13 53.46557 7.92723 23114 ft 369 kts 33°
2026-03-27 16:13 53.48584 7.95407 23113 ft 370 kts 33°
2026-03-27 16:13 53.50587 7.98062 23122 ft 370 kts 33°
2026-03-27 16:13 53.52611 8.00749 23117 ft 370 kts 33°
2026-03-27 16:14 53.54603 8.03397 23112 ft 370 kts 33°
2026-03-27 16:14 53.56636 8.06104 23116 ft 370 kts 33°
2026-03-27 16:14 53.58627 8.08760 23114 ft 370 kts 33°
2026-03-27 16:14 53.60651 8.11460 23112 ft 370 kts 34°
2026-03-27 16:15 53.62655 8.14133 23121 ft 370 kts 33°
2026-03-27 16:15 53.64683 8.16851 23113 ft 370 kts 33°
2026-03-27 16:15 53.66688 8.19537 23110 ft 370 kts 33°
2026-03-27 16:15 53.68693 8.22227 23109 ft 370 kts 33°
2026-03-27 16:16 53.70714 8.24942 23111 ft 370 kts 33°
2026-03-27 16:16 53.72703 8.27617 23123 ft 370 kts 33°
2026-03-27 16:16 53.74727 8.30342 23118 ft 370 kts 33°
2026-03-27 16:16 53.76723 8.33034 23112 ft 371 kts 33°
2026-03-27 16:17 53.78748 8.35768 23117 ft 371 kts 33°
2026-03-27 16:17 53.80735 8.38453 23117 ft 371 kts 33°
2026-03-27 16:17 53.82765 8.41200 23121 ft 371 kts 33°
2026-03-27 16:17 53.84764 8.43910 23122 ft 371 kts 33°
2026-03-27 16:18 53.86775 8.46638 23114 ft 371 kts 33°
2026-03-27 16:18 53.88775 8.49355 23123 ft 371 kts 33°
2026-03-27 16:18 53.90797 8.52106 23123 ft 371 kts 33°
2026-03-27 16:18 53.92795 8.54828 23112 ft 372 kts 33°
2026-03-27 16:19 53.94823 8.57554 23109 ft 370 kts 31°
2026-03-27 16:19 53.97093 8.59305 23128 ft 358 kts
2026-03-27 16:19 53.99541 8.60019 23116 ft 356 kts
2026-03-27 16:19 54.02008 8.60521 23117 ft 356 kts
2026-03-27 16:20 54.04455 8.60954 23110 ft 356 kts
2026-03-27 16:20 54.06918 8.61368 23109 ft 356 kts
2026-03-27 16:20 54.09359 8.61772 23074 ft 357 kts
2026-03-27 16:20 54.11849 8.62180 22753 ft 357 kts
2026-03-27 16:21 54.14303 8.62584 22218 ft 351 kts
2026-03-27 16:21 54.16690 8.62977 21713 ft 344 kts
2026-03-27 16:21 54.19049 8.63364 21259 ft 337 kts
2026-03-27 16:21 54.21346 8.63741 20823 ft 331 kts
2026-03-27 16:22 54.23625 8.64114 20422 ft 326 kts
2026-03-27 16:22 54.25856 8.64478 20007 ft 324 kts
2026-03-27 16:22 54.28102 8.64845 19582 ft 323 kts
2026-03-27 16:22 54.30317 8.65206 19198 ft 320 kts
2026-03-27 16:23 54.32511 8.65565 18846 ft 317 kts
2026-03-27 16:23 54.34698 8.65924 18489 ft 314 kts
2026-03-27 16:23 54.36874 8.66280 18136 ft 314 kts
2026-03-27 16:23 54.39039 8.66634 17812 ft 315 kts
2026-03-27 16:24 54.41204 8.66989 17495 ft 316 kts
2026-03-27 16:24 54.43407 8.67351 17170 ft 316 kts
2026-03-27 16:24 54.45583 8.67709 16850 ft 317 kts
2026-03-27 16:24 54.47780 8.68070 16511 ft 318 kts
2026-03-27 16:25 54.49972 8.68432 16143 ft 319 kts
2026-03-27 16:25 54.52172 8.68795 15796 ft 320 kts
2026-03-27 16:25 54.56605 8.69528 15066 ft 322 kts
2026-03-27 16:26 54.58850 8.69878 14712 ft 321 kts
2026-03-27 16:26 54.60997 8.69237 14343 ft 315 kts 335°
2026-03-27 16:26 54.62737 8.67062 14019 ft 312 kts 315°
2026-03-27 16:26 54.64225 8.64350 13631 ft 313 kts 311°
2026-03-27 16:27 54.65619 8.61526 13268 ft 306 kts 309°
2026-03-27 16:27 54.66949 8.58729 12890 ft 301 kts 309°
2026-03-27 16:27 54.68262 8.55926 12513 ft 297 kts 308°
2026-03-27 16:27 54.69530 8.53190 12138 ft 294 kts 308°
2026-03-27 16:28 54.70801 8.50433 11749 ft 291 kts 308°
2026-03-27 16:28 54.72046 8.47720 11359 ft 289 kts 308°
2026-03-27 16:28 54.73271 8.45038 10986 ft 282 kts 308°
2026-03-27 16:28 54.74471 8.42406 10611 ft 272 kts 308°
2026-03-27 16:29 54.75622 8.39875 10245 ft 267 kts 308°
2026-03-27 16:29 54.76758 8.37369 9887 ft 267 kts 307°
2026-03-27 16:29 54.77899 8.34849 9525 ft 268 kts 307°
2026-03-27 16:29 54.79049 8.32306 9173 ft 269 kts 306°
2026-03-27 16:30 54.80309 8.29970 8834 ft 269 kts 319°
2026-03-27 16:30 54.81792 8.28063 8531 ft 265 kts 321°
2026-03-27 16:30 54.83300 8.26181 8136 ft 265 kts 321°
2026-03-27 16:30 54.84780 8.24356 7773 ft 263 kts 322°
2026-03-27 16:31 54.86258 8.22534 7391 ft 262 kts 321°
2026-03-27 16:31 54.87745 8.20698 6981 ft 262 kts 321°
2026-03-27 16:31 54.89215 8.18880 6575 ft 262 kts 321°
2026-03-27 16:31 54.90706 8.17029 6163 ft 261 kts 321°
2026-03-27 16:32 54.92136 8.15258 5750 ft 249 kts 320°
2026-03-27 16:32 54.93516 8.13546 5361 ft 239 kts 319°
2026-03-27 16:32 54.94820 8.11928 5021 ft 221 kts 319°
2026-03-27 16:32 54.96044 8.10409 4685 ft 217 kts 319°
2026-03-27 16:33 54.97471 8.09423 4323 ft 232 kts 351°
2026-03-27 16:33 54.99033 8.10111 3989 ft 241 kts 28°
2026-03-27 16:33 55.00263 8.12123 3660 ft 242 kts 49°
2026-03-27 16:33 55.01293 8.14433 3316 ft 244 kts 55°
2026-03-27 16:34 55.01849 8.17140 2947 ft 239 kts 92°
2026-03-27 16:34 55.01436 8.19782 2593 ft 223 kts 129°
2026-03-27 16:34 55.00440 8.21785 2241 ft 215 kts 142°
2026-03-27 16:34 54.99427 8.23665 1923 ft 211 kts 141°
2026-03-27 16:35 54.98362 8.25315 1651 ft 201 kts 150°
2026-03-27 16:35 54.97247 8.26703 1376 ft 196 kts 151°
2026-03-27 16:35 54.96147 8.28064 1173 ft 183 kts 151°
2026-03-27 16:35 54.95155 8.29296 826 ft 174 kts 150°
2026-03-27 16:36 54.94269 8.30398 720 ft 142 kts 152°
2026-03-27 16:36 54.93501 8.31349 463 ft 126 kts 152°
2026-03-27 16:36 54.92827 8.32176 278 ft 112 kts 153°
2026-03-27 16:36 54.92234 8.32911 136 ft 98 kts 152°
2026-03-27 16:37 54.91701 8.33581 36 ft 90 kts 151°
2026-03-27 16:37 54.91245 8.34131 33 ft 62 kts 144°
2026-03-27 16:37 54.90980 8.34468 34 ft 41 kts 143°
2026-03-27 16:37 54.90768 8.34734 35 ft 34 kts 143°
2026-03-27 16:38 54.90616 8.34922 35 ft 16 kts 144°
2026-03-27 16:38 54.90574 8.34903 35 ft 6 kts 223°
2026-03-27 16:38 54.90529 8.34831 35 ft 10 kts 222°
2026-03-27 16:38 54.90463 8.34727 35 ft 14 kts 222°
2026-03-27 16:39 54.90376 8.34588 34 ft 19 kts 222°
2026-03-27 16:39 54.90286 8.34407 33 ft 19 kts 238°
2026-03-27 16:39 54.90239 8.34195 31 ft 18 kts 261°
2026-03-27 16:39 54.90239 8.33975 30 ft 17 kts 276°
2026-03-27 16:40 54.90256 8.33763 29 ft 18 kts 280°
2026-03-27 16:40 54.90309 8.33519 29 ft 24 kts 303°
2026-03-27 16:40 54.90429 8.33323 29 ft 23 kts 329°
2026-03-27 16:40 54.90576 8.33246 29 ft 21 kts 356°
2026-03-27 16:41 54.90720 8.33227 29 ft 20 kts 355°
2026-03-27 16:41 54.90855 8.33190 29 ft 19 kts 340°
2026-03-27 16:41 54.90966 8.33079 29 ft 17 kts 317°
2026-03-27 16:41 54.91047 8.32928 29 ft 16 kts 312°
2026-03-27 16:42 54.91121 8.32784 28 ft 15 kts 310°
2026-03-27 16:42 54.91188 8.32651 28 ft 12 kts 314°
2026-03-27 16:42 54.91236 8.32574 28 ft 5 kts 311°
2026-03-27 16:43 54.91238 8.32533 28 ft 0 kts 242°